Weather History for KHJO - March, 2014

Change the Weather History Date:

Monday, March 17, 2014

  Actual Average Record
Temperature  
Mean Temperature 63 °F 56 °F  
Max Temperature 73 °F 68 °F 87 °F (1972)
Min Temperature 53 °F 43 °F 32 °F (2008)
Degree Days  
Heating Degree Days 2    
Month to date heating degree days 98  
Since 1 July heating degree days 1875  
Cooling Degree Days 0    
Month to date cooling degree days 0  
Year to date cooling degree days 0  
Growing Degree Days 12 (Base 50)    
Moisture  
Dew Point 40 °F    
Average Humidity 46    
Maximum Humidity 60    
Minimum Humidity 31    
Precipitation  
Precipitation 0.00 in 0.04 in 1.39 in (2012)
Month to date precipitation 0.01 1.07  
Year to date precipitation 1.77 4.84  
Since 1 July precipitation 2.16  
Snow  
Snow 0.00 in - - ()
Month to date snowfall 0.0  
Since 1 July snowfall 0.0  
Snow Depth 0.00 in    
Sea Level Pressure  
Sea Level Pressure 30.04 in    
Wind  
Wind Speed 15 mph (NW)    
Max Wind Speed 24 mph    
Max Gust Speed 31 mph    
Visibility 6 miles    
Events      
T = Trace of Precipitation, MM = Missing Value Source: NWS Daily Summary

Daily Weather History Graph

Daily Weather History Graph

Search for Another Location

Airport or City:

Trip Planner

Search our weather history database for the weather conditions in past years. The results will help you decide how hot, cold, wet, or windy it might be!

Date:

Astronomy

Mar. 17, 2014 Rise Set
Actual Time 7:06 AM PDT 7:07 PM PDT
Civil Twilight 6:40 AM PDT 7:33 PM PDT
Nautical Twilight 6:10 AM PDT 8:03 PM PDT
Astronomical Twilight 5:40 AM PDT 8:33 PM PDT
Moon 8:26 PM PDT (3/17) 7:27 AM PDT (3/17)
Length of Visible Light 12h 52m
Length of Day
12h 01m
Full, 99% of the Moon is Illuminated
Mar 17
Full
Mar 23
Last Quarter
Mar 30
New
Apr 7
First Quarter
Apr 15
Full

Hourly Weather History & Observations

Time (PDT) Temp. Dew Point Humidity Pressure Visibility Wind Dir Wind Speed Gust Speed Precip Events Conditions
12:53 AM 59.0 °F 44.1 °F 58% 30.13 in 10.0 mi NW 6.9 mph - N/A   Clear
1:53 AM 59.0 °F 45.0 °F 60% 30.10 in 10.0 mi NW 5.8 mph - N/A   Clear
2:53 AM 60.1 °F 46.0 °F 60% 30.11 in 10.0 mi NW 13.8 mph - N/A   Clear
3:53 AM 60.1 °F 33.1 °F 36% 30.11 in 10.0 mi NW 19.6 mph - N/A   Clear
4:53 AM 59.0 °F 28.9 °F 32% 30.09 in 10.0 mi NW 15.0 mph - N/A   Clear
5:53 AM 55.0 °F 30.9 °F 40% 30.08 in 10.0 mi NW 8.1 mph - N/A   Clear
6:53 AM 55.0 °F 30.9 °F 40% 30.10 in 3.0 mi NNW 16.1 mph 23.0 mph N/A   Haze
6:55 AM 55.0 °F 30.9 °F 40% 30.09 in 2.5 mi NNW 18.4 mph 25.3 mph N/A   Haze
7:18 AM 54.0 °F 34.0 °F 47% 30.09 in 1.8 mi NNW 17.3 mph 23.0 mph N/A   Haze
7:40 AM 54.0 °F 36.0 °F 51% 30.09 in 0.8 mi NNW 18.4 mph 25.3 mph N/A   Haze
7:50 AM 53.6 °F 37.4 °F 54% 30.09 in 1.2 mi NNW 16.1 mph 26.5 mph N/A   Haze
7:53 AM 54.0 °F 37.0 °F 53% 30.09 in 1.5 mi NNW 16.1 mph 26.5 mph N/A   Haze
8:28 AM 55.9 °F 39.0 °F 53% 30.09 in 3.0 mi NW 15.0 mph - N/A   Haze
8:50 AM 57.2 °F 39.2 °F 51% 30.09 in 1.8 mi NNW 15.0 mph 27.6 mph N/A   Haze
8:53 AM 57.0 °F 39.9 °F 53% 30.09 in 2.5 mi NNW 17.3 mph - N/A   Haze
9:00 AM 57.9 °F 39.9 °F 51% 30.09 in 5.0 mi NNW 16.1 mph 23.0 mph N/A   Haze
9:37 AM 60.1 °F 42.1 °F 51% 30.07 in 2.5 mi NNW 16.1 mph 24.2 mph N/A   Haze
9:41 AM 60.1 °F 42.1 °F 51% 30.07 in 1.2 mi NNW 21.9 mph 27.6 mph N/A   Haze
9:44 AM 60.1 °F 42.1 °F 51% 30.07 in 0.8 mi NNW 21.9 mph 29.9 mph N/A   Haze
9:53 AM 60.1 °F 42.1 °F 51% 30.09 in 1.0 mi NNW 19.6 mph 26.5 mph N/A   Haze
10:03 AM 60.1 °F 42.1 °F 51% 30.08 in 1.2 mi NNW 19.6 mph 25.3 mph N/A   Haze
10:30 AM 63.0 °F 43.0 °F 48% 30.08 in 3.0 mi NW 19.6 mph - N/A   Haze
10:43 AM 63.0 °F 42.1 °F 46% 30.08 in 1.5 mi NNW 20.7 mph 25.3 mph N/A   Haze
10:53 AM 63.0 °F 42.1 °F 46% 30.08 in 1.5 mi NNW 19.6 mph - N/A   Haze
11:02 AM 64.0 °F 43.0 °F 46% 30.07 in 1.2 mi NNW 16.1 mph - N/A   Haze
11:11 AM 64.0 °F 43.0 °F 46% 30.07 in 3.0 mi North 12.7 mph 23.0 mph N/A   Haze
11:53 AM 66.0 °F 44.1 °F 45% 30.06 in 7.0 mi NW 17.3 mph 21.9 mph N/A   Clear
12:53 PM 69.1 °F 44.1 °F 40% 30.04 in 5.0 mi NNW 13.8 mph - N/A   Haze
1:53 PM 70.0 °F 44.1 °F 39% 30.01 in 7.0 mi NNW 13.8 mph - N/A   Clear
2:53 PM 71.1 °F 44.1 °F 38% 29.97 in 10.0 mi NW 16.1 mph 23.0 mph N/A   Clear
3:53 PM 72.0 °F 43.0 °F 35% 29.95 in 10.0 mi NNW 13.8 mph - N/A   Clear
4:53 PM 71.1 °F 43.0 °F 36% 29.94 in 2.5 mi NW 17.3 mph 26.5 mph N/A   Haze
5:00 PM 71.1 °F 42.1 °F 35% 29.93 in 9.0 mi NW 20.7 mph 26.5 mph N/A   Clear
5:53 PM 69.1 °F 41.0 °F 36% 29.93 in 10.0 mi NW 16.1 mph - N/A   Clear
6:53 PM 66.9 °F 43.0 °F 42% 29.91 in 10.0 mi WNW 12.7 mph - N/A   Clear
7:53 PM 64.0 °F 43.0 °F 46% 29.92 in 10.0 mi NW 15.0 mph - N/A   Clear
8:53 PM 62.1 °F 41.0 °F 46% 29.93 in 10.0 mi NW 12.7 mph - N/A   Clear
9:53 PM 57.9 °F 39.9 °F 51% 29.94 in 10.0 mi NW 11.5 mph - N/A   Clear
10:53 PM 57.0 °F 34.0 °F 42% 29.94 in 10.0 mi WNW 11.5 mph - N/A   Clear
11:53 PM 55.0 °F 30.9 °F 40% 29.94 in 10.0 mi WNW 12.7 mph - N/A   Clear